User: anonymous   Login
Location: Pcim
(49.7500°N, 19.9670°E)
Time: 05:35:59
(UTC+02:00)
Language:

AO-27 - Orbit

View from above orbital plane
View from above orbital plane
View from above satellite
View from above satellite

Ground track
Ground track

The orbit data is extracted from the following two-line orbital elements,

1 22825U 93061C   24108.61466968  .00000362  00000-0  15656-3 0  9996
2 22825  98.7948 160.7413 0007364 253.4288 106.6085 14.30458921593954
Epoch (UTC): 17 April 2024 14:45:07
Eccentricity: 0.0007364
inclination: 98.7948°
perigee height: 785 km
apogee height: 795 km
right ascension of ascending node: 160.7413°
argument of perigee: 253.4288°
revolutions per day: 14.30458921
mean anomaly at epoch: 106.6085°
orbit number at epoch: 59395

The dashed part of the orbit path shows where the satellite is in the earth's shadow,  

DLR